Regional Weather Roundup
Issued by NWS

Home | Current Version | Previous Version | Graphics & Text | Print | Product List | Glossary On
Versions: 1 2 3 4 5 6 7 8 9 10 11 12 13 14 15 16 17 18 19 20 21 22 23 24 25 26 27 28 29 30 31 32 33 34 35 36 37 38 39 40 41 42 43 44 45 46 47 48 49 50
000
ASUS43 KFSD 220710
RWRSD

WEATHER ROUNDUP FOR SOUTH DAKOTA
NATIONAL WEATHER SERVICE SIOUX FALLS SD
100 AM CST THU FEB 22 2018

NOTE: "FAIR" INDICATES FEW OR NO CLOUDS BELOW 12,000 FEET WITH NO
SIGNIFICANT WEATHER AND/OR OBSTRUCTIONS TO VISIBILITY.


SDZ001>005-009-010-012>017-220800-
NORTHWEST AND NORTH CENTRAL SOUTH DAKOTA

CITY           SKY/WX    TMP DP  RH WIND       PRES   REMARKS
BUFFALO          N/A     -6 -12  75 S6        30.10F WCI -19
FAITH            N/A     -5  -8  87 SE5       30.23F WCI -16
MOBRIDGE       FAIR       1  -4  79 CALM      30.31F
$$

SDZ012>016-024>037-041>051-057-063-072>074-220800-
SOUTHWEST AND SOUTH CENTRAL SOUTH DAKOTA

CITY           SKY/WX    TMP DP  RH WIND       PRES   REMARKS
RAPID CTY ARPT FAIR       3  -4  72 E6        30.16F WCI  -8
PIERRE         FAIR       9   4  80 SE10      30.34F WCI  -5
CUSTER         FAIR       7   1  76 CALM      30.05F
ELLSWORTH AFB  FAIR       9   1  68 S6        30.14F WCI  -1
PHILIP         FAIR       5   2  87 CALM      30.27F
PINE RIDGE     MOCLDY    17   8  67 S14       30.19F WCI   3
SPEARFISH        N/A      9  -6  52 S5        30.11F WCI   0
WINNER         FAIR      20   9  62 S8        30.35R WCI  10
$$

SDZ004>011-016>023-039-040-220800-
NORTHEAST SOUTH DAKOTA

CITY           SKY/WX    TMP DP  RH WIND       PRES   REMARKS
ABERDEEN       FAIR       5  -1  76 S17       30.44F WCI -14
WATERTOWN      FAIR       3  -1  83 S7        30.46S WCI  -9
BROOKINGS      FAIR       6   1  80 CALM      30.49S
SISSETON         N/A     -4  -8  83 CALM      30.51F
$$

SDZ017-020-022-023-036>040-048>070-220800-
SOUTHEAST SOUTH DAKOTA

CITY           SKY/WX    TMP DP  RH WIND       PRES   REMARKS
SIOUX FALLS    FAIR      11   5  77 CALM      30.51F
HURON          FAIR       6   1  80 SE6       30.47F WCI  -4
CHAMBERLAIN    FAIR      12   7  81 E6        30.40F WCI   2
MITCHELL       FAIR      12   6  77 SE8       30.48F WCI   0
YANKTON        FAIR      15   8  73 E3        30.51S
$$

ABBREVIATIONS USED IN REMARKS
   TC - TEMPERATURE IN CELSIUS
  WCI - WIND CHILL INDEX
   HX - HEAT INDEX
  VSB - VISIBILITY





USA.gov is the U.S. government's official web portal to all federal, state and local government web resources and services.